Kezdőlap
METAR-TAF:

METAR-TAF

Repülőterek :

Iowa City Municipal Airport

Iowa City, Iowa, Amerikai Egyesült Államok

földrajzi szélesség: 41-37-58N, földrajzi hosszúság: 091-32-35W, magasság: 203 m

Jelenlegi meteorológiai megfigyelések

A jelentés 17 perccel ezelõtt készült, 08:52 UTC
Nyugati szél 4 kt
Hőmérséklet -3°C
Páratartalom 74%
Légköri nyomás 1021 hPa
Látótávolság: 16.1 km
Borult 6000 lábon

METAR: KIOW 270852Z AUTO 26004KT 10SM OVC060 M03/M07 A3015 RMK AO2 SLP218 T10331072 58016

Idő: 03:09 (09:09 UTC)


TAF: hiányzik

Meteorológiai megfigyelések és előrejelzések több, mint 4000 repülőtéren (METAR és TAF jelentéseket).

A térképen piros és sárga pontok jelzik az elérhető meteorológiai állomásokat.

Mozgassa az egeret a pont fölött, hogy megjelenjen az állomás neve.

Azután kattintson az időjárási megfigyelések és előrejelzések megtekintéséhez.

A térkép megváltoztatása: kattintson a fekete keresztel jelölt zöld gombra ráközelítéshez, a vonallal jelölt zöld gombra távolításhoz, vagy a zöld nyilakra a szomszédos térképek eléréséhez.


METAR-TAF: